SYRACUSE 4B

Last updated on Sun Oct 06 2024 00:02:42 GMT+0000 (Coordinated Universal Time)

1 57214U 23093B 24279.37341187 -.00000044 00000+0 00000+0 0 9991 2 57214 0.0180 210.2180 0000068 49.9096 242.2669 1.00272082 749
UTC large
Height (km)
Speed (km/s)
/
Latitude / Longitude
Inclination (degrees)
Orbital Period (minutes)
Azimuth
Elevation
Range (km)
Doppler Factor

Next 0 passes for location: London (51.5072 / 0.1276)

Sorry there are no passes over London.